| time (UTC) | temp F | wind direction | speed MPH | gust MPH | rain 1hr in | rain 24hr in | rain mn in | humidity % | barometer mb |
| 20260831050653 | 70 | 280 | 6.0 | 12.0 | 0.00 | 0.04 | 0.04 | 47 | 1020.6 |
| 20260831050152 | 70 | 302 | 7.0 | 12.0 | 0.00 | 0.04 | 0.04 | 47 | 1020.6 |
| 20260831045927 | 70 | 290 | 5.0 | 11.0 | 0.00 | 0.04 | 0.04 | 47 | 1020.6 |
| 20260831045704 | 70 | 290 | 5.0 | 11.0 | 0.00 | 0.04 | 0.04 | 47 | 1020.6 |
| 20260831045151 | 70 | 298 | 3.0 | 9.0 | 0.00 | 0.04 | 0.04 | 47 | 1020.6 |
| 20260831044650 | 69 | 281 | 2.0 | 7.0 | 0.00 | 0.04 | 0.04 | 47 | 1020.6 |
| 20260831044421 | 69 | 264 | 2.0 | 7.0 | 0.00 | 0.04 | 0.04 | 51 | 1020.6 |
| 20260831043650 | 67 | 297 | 2.0 | 5.0 | 0.00 | 0.04 | 0.04 | 55 | 1020.6 |
| 20260831043149 | 67 | 281 | 3.0 | 5.0 | 0.00 | 0.04 | 0.04 | 58 | 1020.6 |
| 20260831042649 | 67 | 302 | 1.0 | 5.0 | 0.00 | 0.04 | 0.04 | 64 | 1020.6 |
| 20260831042149 | 67 | 290 | 0.0 | 3.0 | 0.00 | 0.04 | 0.04 | 63 | 1020.6 |
| 20260831041649 | 67 | 271 | 0.0 | 0.0 | 0.00 | 0.04 | 0.04 | 63 | 1020.6 |
| 20260831041418 | 67 | 271 | 0.0 | 0.0 | 0.00 | 0.04 | 0.04 | 64 | 1020.6 |
| 20260831040650 | 67 | 271 | 0.0 | 0.0 | 0.00 | 0.04 | 0.04 | 65 | 1020.6 |
| 20260831040147 | 67 | 275 | 0.0 | 0.0 | 0.00 | 0.04 | 0.04 | 65 | 1020.6 |
| 20260831035649 | 67 | 275 | 0.0 | 0.0 | 0.00 | 0.04 | 0.04 | 65 | 1020.6 |
| 20260831035148 | 67 | 275 | 0.0 | 0.0 | 0.00 | 0.04 | 0.04 | 65 | 1020.6 |
| 20260831034649 | 66 | 276 | 0.0 | 0.0 | 0.00 | 0.04 | 0.04 | 66 | 1020.6 |
| 20260831034148 | 66 | 276 | 0.0 | 0.0 | 0.00 | 0.04 | 0.04 | 67 | 1020.6 |
| 20260831033648 | 66 | 276 | 0.0 | 0.0 | 0.00 | 0.04 | 0.04 | 67 | 1020.6 |
| 20260831033149 | 66 | 276 | 0.0 | 0.0 | 0.00 | 0.04 | 0.04 | 67 | 1020.6 |
| 20260831032651 | 66 | 276 | 0.0 | 0.0 | 0.00 | 0.04 | 0.04 | 67 | 1020.6 |
| 20260831032149 | 65 | 276 | 0.0 | 0.0 | 0.00 | 0.04 | 0.04 | 69 | 1020.6 |
| 20260831031649 | 65 | 277 | 0.0 | 0.0 | 0.00 | 0.04 | 0.04 | 71 | 1020.6 |
| 20260831031149 | 65 | 276 | 0.0 | 0.0 | 0.00 | 0.04 | 0.04 | 70 | 1020.6 |
| 20260831030650 | 64 | 277 | 0.0 | 0.0 | 0.00 | 0.04 | 0.04 | 70 | 1020.6 |
| 20260831030148 | 64 | 287 | 0.0 | 0.0 | 0.00 | 0.04 | 0.04 | 70 | 1020.6 |
| 20260831025649 | 64 | 258 | 0.0 | 0.0 | 0.00 | 0.04 | 0.04 | 71 | 1020.6 |
| 20260831025148 | 64 | 258 | 0.0 | 0.0 | 0.00 | 0.04 | 0.04 | 70 | 1020.6 |
| 20260831024650 | 64 | 258 | 0.0 | 0.0 | 0.00 | 0.04 | 0.04 | 71 | 1020.6 |
| 20260831024147 | 64 | 258 | 0.0 | 0.0 | 0.00 | 0.04 | 0.04 | 72 | 1020.6 |
| 20260831023647 | 64 | 229 | 0.0 | 0.0 | 0.00 | 0.04 | 0.04 | 73 | 1020.6 |
| 20260831023149 | 64 | 229 | 0.0 | 0.0 | 0.00 | 0.04 | 0.04 | 73 | 1020.6 |
| 20260831022649 | 65 | 229 | 0.0 | 0.0 | 0.00 | 0.04 | 0.04 | 72 | 1020.6 |
| 20260831022148 | 65 | 229 | 0.0 | 0.0 | 0.00 | 0.04 | 0.04 | 72 | 1020.6 |
| 20260831021647 | 65 | 229 | 0.0 | 0.0 | 0.00 | 0.04 | 0.04 | 70 | 1020.6 |
| 20260831021149 | 65 | 229 | 0.0 | 0.0 | 0.00 | 0.04 | 0.04 | 69 | 1020.6 |
| 20260831020650 | 65 | 229 | 0.0 | 0.0 | 0.00 | 0.04 | 0.04 | 68 | 1020.6 |
| 20260831020147 | 65 | 229 | 0.0 | 0.0 | 0.00 | 0.04 | 0.04 | 68 | 1020.6 |
| 20260831015648 | 66 | 229 | 0.0 | 0.0 | 0.00 | 0.04 | 0.04 | 67 | 1020.6 |
| 20260831015148 | 66 | 229 | 0.0 | 0.0 | 0.00 | 0.04 | 0.04 | 67 | 1020.6 |
| 20260831014648 | 66 | 229 | 0.0 | 0.0 | 0.00 | 0.04 | 0.04 | 65 | 1020.6 |
| 20260831014418 | 67 | 229 | 0.0 | 0.0 | 0.00 | 0.04 | 0.04 | 65 | 1020.6 |
| 20260831013919 | 67 | 229 | 0.0 | 0.0 | 0.00 | 0.04 | 0.04 | 64 | 1020.6 |
| 20260831013149 | 67 | 271 | 0.0 | 0.0 | 0.00 | 0.04 | 0.04 | 63 | 1020.6 |
| 20260831012918 | 67 | 221 | 0.0 | 0.0 | 0.00 | 0.04 | 0.04 | 63 | 1020.6 |
| 20260831012148 | 68 | 221 | 0.0 | 0.0 | 0.00 | 0.04 | 0.04 | 63 | 1020.6 |
| 20260831011647 | 68 | 201 | 0.0 | 0.0 | 0.00 | 0.04 | 0.04 | 62 | 1020.6 |
| 20260831011146 | 68 | 202 | 0.0 | 0.0 | 0.00 | 0.04 | 0.04 | 61 | 1020.6 |
| 20260831010646 | 68 | 304 | 0.0 | 0.0 | 0.00 | 0.04 | 0.04 | 61 | 1020.6 |
| 20260831010147 | 69 | 120 | 0.0 | 0.0 | 0.00 | 0.04 | 0.04 | 60 | 1020.6 |
| 20260831005651 | 69 | 94 | 0.0 | 0.0 | 0.00 | 0.04 | 0.04 | 58 | 1020.6 |
| 20260831005647 | 69 | 292 | 0.0 | 0.0 | 0.00 | 0.04 | 0.04 | 59 | 1020.6 |
| 20260831004914 | 69 | 94 | 0.0 | 0.0 | 0.00 | 0.04 | 0.04 | 58 | 1020.6 |
| 20260831004144 | 69 | 94 | 0.0 | 0.0 | 0.00 | 0.04 | 0.04 | 57 | 1020.6 |
| 20260831003646 | 69 | 94 | 0.0 | 1.0 | 0.00 | 0.04 | 0.04 | 57 | 1020.6 |
| 20260831003144 | 70 | 94 | 0.0 | 1.0 | 0.00 | 0.04 | 0.04 | 56 | 1020.6 |
| 20260831002641 | 71 | 89 | 0.0 | 1.0 | 0.00 | 0.04 | 0.04 | 55 | 1020.6 |
| 20260831002143 | 71 | 124 | 0.0 | 3.0 | 0.00 | 0.04 | 0.04 | 55 | 1020.6 |
| 20260831001643 | 71 | 115 | 0.0 | 3.0 | 0.00 | 0.04 | 0.04 | 54 | 1020.6 |
| 20260831001141 | 71 | 30 | 0.0 | 3.0 | 0.00 | 0.04 | 0.04 | 53 | 1020.6 |
| 20260831000642 | 71 | 103 | 1.0 | 5.0 | 0.00 | 0.04 | 0.04 | 54 | 1020.6 |
| 20260831000140 | 71 | 116 | 1.0 | 5.0 | 0.00 | 0.04 | 0.04 | 53 | 1020.6 |
| 20260830235641 | 71 | 91 | 1.0 | 3.0 | 0.00 | 0.04 | 0.04 | 52 | 1020.6 |
| 20260830235141 | 71 | 81 | 1.0 | 2.0 | 0.00 | 0.04 | 0.04 | 55 | 1020.6 |
| 20260830234911 | 71 | 47 | 0.0 | 3.0 | 0.00 | 0.04 | 0.04 | 54 | 1020.6 |
| 20260830234410 | 72 | 92 | 0.0 | 3.0 | 0.00 | 0.04 | 0.04 | 51 | 1020.6 |
| 20260830233639 | 73 | 103 | 0.0 | 5.0 | 0.00 | 0.04 | 0.04 | 50 | 1020.6 |
| 20260830233140 | 75 | 118 | 0.0 | 3.0 | 0.00 | 0.04 | 0.04 | 47 | 1020.6 |
| 20260830233135 | 74 | 268 | 1.0 | 5.0 | 0.00 | 0.04 | 0.04 | 48 | 1020.6 |
| 20260830232136 | 75 | 91 | 0.0 | 3.0 | 0.00 | 0.04 | 0.04 | 45 | 1020.6 |
| 20260830231635 | 75 | 138 | 1.0 | 5.0 | 0.00 | 0.04 | 0.04 | 45 | 1020.6 |
| 20260830231140 | 75 | 79 | 4.0 | 7.0 | 0.00 | 0.04 | 0.04 | 47 | 1020.6 |
| 20260830231135 | 75 | 115 | 3.0 | 7.0 | 0.00 | 0.04 | 0.04 | 48 | 1020.6 |
| 20260830230134 | 76 | 79 | 3.0 | 7.0 | 0.00 | 0.04 | 0.04 | 47 | 1020.6 |
| 20260830225907 | 75 | 88 | 1.0 | 6.0 | 0.00 | 0.04 | 0.04 | 46 | 1020.6 |
| 20260830225131 | 74 | 83 | 0.0 | 4.0 | 0.00 | 0.04 | 0.04 | 47 | 1020.6 |
| 20260830224631 | 74 | 111 | 0.0 | 3.0 | 0.00 | 0.04 | 0.04 | 45 | 1020.6 |
| 20260830224132 | 75 | 86 | 0.0 | 3.0 | 0.00 | 0.04 | 0.04 | 42 | 1020.6 |
| 20260830223904 | 75 | 91 | 0.0 | 4.0 | 0.00 | 0.04 | 0.04 | 43 | 1020.6 |
| 20260830223132 | 75 | 115 | 0.0 | 4.0 | 0.00 | 0.04 | 0.04 | 43 | 1020.6 |
| 20260830222631 | 75 | 83 | 0.0 | 3.0 | 0.00 | 0.04 | 0.04 | 42 | 1020.6 |
| 20260830222133 | 74 | 91 | 0.0 | 3.0 | 0.00 | 0.04 | 0.04 | 42 | 1020.6 |
| 20260830221632 | 73 | 96 | 0.0 | 1.0 | 0.00 | 0.04 | 0.04 | 43 | 1020.6 |
| 20260830221131 | 72 | 221 | 0.0 | 2.0 | 0.00 | 0.04 | 0.04 | 46 | 1020.6 |
| 20260830220630 | 71 | 292 | 0.0 | 2.0 | 0.00 | 0.04 | 0.04 | 46 | 1020.6 |
| 20260830220132 | 71 | 101 | 0.0 | 1.0 | 0.00 | 0.04 | 0.04 | 47 | 1020.6 |
| 20260830215629 | 71 | 254 | 0.0 | 4.0 | 0.00 | 0.04 | 0.04 | 47 | 1020.6 |
| 20260830215402 | 70 | 272 | 1.0 | 5.0 | 0.00 | 0.04 | 0.04 | 47 | 1020.6 |
| 20260830214632 | 70 | 257 | 5.0 | 18.0 | 0.00 | 0.05 | 0.04 | 49 | 1020.6 |
| 20260830214129 | 69 | 261 | 9.0 | 19.0 | 0.00 | 0.05 | 0.04 | 50 | 1020.6 |
| 20260830213630 | 68 | 295 | 10.0 | 19.0 | 0.01 | 0.06 | 0.04 | 53 | 1020.6 |
| 20260830213130 | 67 | 306 | 12.0 | 27.0 | 0.02 | 0.06 | 0.04 | 54 | 1020.6 |
| 20260830212632 | 67 | 278 | 14.0 | 27.0 | 0.03 | 0.06 | 0.04 | 55 | 1020.6 |
| 20260830212130 | 66 | 309 | 14.0 | 25.0 | 0.04 | 0.06 | 0.04 | 56 | 1020.6 |
| 20260830211629 | 66 | 304 | 15.0 | 28.0 | 0.04 | 0.06 | 0.04 | 57 | 1020.6 |
| 20260830211129 | 67 | 284 | 17.0 | 32.0 | 0.04 | 0.06 | 0.04 | 55 | 1020.6 |
| 20260830210631 | 67 | 282 | 14.0 | 32.0 | 0.04 | 0.06 | 0.04 | 55 | 1020.6 |
| 20260830210130 | 67 | 311 | 10.0 | 31.0 | 0.04 | 0.06 | 0.04 | 54 | 1020.6 |
| 20260830205628 | 66 | 295 | 10.0 | 17.0 | 0.04 | 0.06 | 0.04 | 58 | 1020.6 |
| 20260830205129 | 65 | 281 | 13.0 | 21.0 | 0.04 | 0.06 | 0.04 | 61 | 1020.6 |
| 20260830204638 | 63 | 302 | 13.0 | 21.0 | 0.04 | 0.06 | 0.04 | 66 | 1020.6 |
| 20260830204632 | 64 | 295 | 14.0 | 21.0 | 0.04 | 0.06 | 0.04 | 64 | 1020.6 |
| 20260830203630 | 62 | 285 | 14.0 | 26.0 | 0.03 | 0.05 | 0.03 | 68 | 1020.6 |
| 20260830203128 | 62 | 279 | 17.0 | 29.0 | 0.02 | 0.04 | 0.02 | 67 | 1020.6 |
| 20260830202859 | 64 | 290 | 19.0 | 36.0 | 0.01 | 0.03 | 0.01 | 62 | 1020.6 |
| 20260830202127 | 69 | 282 | 18.0 | 36.0 | 0.00 | 0.02 | 0.00 | 49 | 1020.6 |
| 20260830201629 | 71 | 311 | 13.0 | 29.0 | 0.00 | 0.02 | 0.00 | 43 | 1020.6 |
| 20260830201128 | 74 | 286 | 9.0 | 16.0 | 0.00 | 0.02 | 0.00 | 57 | 1020.6 |
| 20260830200627 | 75 | 300 | 9.0 | 14.0 | 0.00 | 0.02 | 0.00 | 50 | 1020.6 |
| 20260830200127 | 75 | 293 | 8.0 | 12.0 | 0.00 | 0.02 | 0.00 | 47 | 1020.6 |
| 20260830195630 | 76 | 305 | 8.0 | 12.0 | 0.00 | 0.02 | 0.00 | 46 | 1020.6 |
| 20260830195127 | 77 | 313 | 8.0 | 11.0 | 0.00 | 0.02 | 0.00 | 47 | 1020.6 |
| 20260830194628 | 77 | 262 | 9.0 | 17.0 | 0.00 | 0.02 | 0.00 | 43 | 1020.6 |
| 20260830194126 | 77 | 311 | 7.0 | 17.0 | 0.00 | 0.02 | 0.00 | 44 | 1020.6 |
| 20260830193628 | 79 | 293 | 1.0 | 16.0 | 0.00 | 0.02 | 0.00 | 39 | 1020.6 |
| 20260830193125 | 80 | 304 | 1.0 | 4.0 | 0.00 | 0.02 | 0.00 | 38 | 1020.6 |
| 20260830192625 | 80 | 96 | 2.0 | 6.0 | 0.00 | 0.02 | 0.00 | 39 | 1020.6 |
| 20260830192358 | 80 | 86 | 2.0 | 8.0 | 0.00 | 0.02 | 0.00 | 39 | 1020.6 |
| 20260830191856 | 80 | 101 | 2.0 | 8.0 | 0.00 | 0.02 | 0.00 | 38 | 1020.6 |
| 20260830191124 | 81 | 84 | 2.0 | 5.0 | 0.00 | 0.02 | 0.00 | 38 | 1020.6 |
| 20260830190626 | 80 | 94 | 2.0 | 7.0 | 0.00 | 0.02 | 0.00 | 38 | 1020.6 |
| 20260830190123 | 80 | 109 | 1.0 | 7.0 | 0.00 | 0.02 | 0.00 | 39 | 1020.6 |
| 20260830185624 | 80 | 125 | 3.0 | 7.0 | 0.00 | 0.02 | 0.00 | 39 | 1020.6 |
| 20260830185123 | 79 | 294 | 3.0 | 7.0 | 0.00 | 0.02 | 0.00 | 39 | 1020.6 |
| 20260830184624 | 80 | 100 | 2.0 | 7.0 | 0.00 | 0.02 | 0.00 | 38 | 1020.6 |
| 20260830184355 | 80 | 116 | 1.0 | 6.0 | 0.00 | 0.02 | 0.00 | 38 | 1020.6 |
| 20260830183854 | 80 | 236 | 3.0 | 8.0 | 0.00 | 0.02 | 0.00 | 38 | 1020.6 |
| 20260830183354 | 80 | 89 | 3.0 | 9.0 | 0.00 | 0.02 | 0.00 | 37 | 1020.6 |
| 20260830182851 | 80 | 215 | 3.0 | 9.0 | 0.00 | 0.02 | 0.00 | 38 | 1020.6 |
| 20260830182124 | 80 | 224 | 3.0 | 8.0 | 0.00 | 0.02 | 0.00 | 39 | 1020.6 |
| 20260830181622 | 80 | 77 | 4.0 | 13.0 | 0.00 | 0.02 | 0.00 | 39 | 1020.6 |
| 20260830181353 | 80 | 75 | 3.0 | 13.0 | 0.00 | 0.02 | 0.00 | 39 | 1020.6 |
| 20260830180623 | 80 | 93 | 3.0 | 7.0 | 0.00 | 0.02 | 0.00 | 40 | 1020.6 |
| 20260830180122 | 79 | 70 | 4.0 | 8.0 | 0.00 | 0.02 | 0.00 | 41 | 1020.6 |
| 20260830175621 | 79 | 113 | 2.0 | 8.0 | 0.00 | 0.02 | 0.00 | 40 | 1020.6 |
| 20260830175121 | 79 | 112 | 1.0 | 5.0 | 0.00 | 0.02 | 0.00 | 40 | 1020.6 |
| 20260830174621 | 79 | 253 | 3.0 | 8.0 | 0.00 | 0.02 | 0.00 | 39 | 1020.6 |
| 20260830174353 | 79 | 102 | 3.0 | 8.0 | 0.00 | 0.02 | 0.00 | 40 | 1020.6 |
| 20260830173620 | 80 | 156 | 1.0 | 8.0 | 0.00 | 0.02 | 0.00 | 39 | 1020.6 |
| 20260830173121 | 80 | 251 | 2.0 | 6.0 | 0.00 | 0.02 | 0.00 | 38 | 1020.6 |
| 20260830172853 | 80 | 100 | 3.0 | 6.0 | 0.00 | 0.02 | 0.00 | 38 | 1020.6 |
| 20260830172120 | 80 | 122 | 2.0 | 8.0 | 0.00 | 0.02 | 0.00 | 39 | 1020.6 |
| 20260830171622 | 80 | 88 | 2.0 | 8.0 | 0.00 | 0.02 | 0.00 | 38 | 1020.6 |
| 20260830171352 | 79 | 72 | 2.0 | 8.0 | 0.00 | 0.02 | 0.00 | 41 | 1020.6 |
| 20260830170621 | 79 | 114 | 2.0 | 7.0 | 0.00 | 0.02 | 0.00 | 40 | 1020.6 |
| 20260830170121 | 78 | 147 | 1.0 | 6.0 | 0.00 | 0.02 | 0.00 | 41 | 1020.6 |
| 20260830165620 | 78 | 119 | 1.0 | 6.0 | 0.00 | 0.02 | 0.00 | 39 | 1020.6 |
| 20260830165122 | 78 | 136 | 2.0 | 7.0 | 0.00 | 0.02 | 0.00 | 41 | 1020.6 |
| 20260830164619 | 78 | 111 | 1.0 | 7.0 | 0.00 | 0.02 | 0.00 | 41 | 1020.6 |
| 20260830164120 | 79 | 119 | 1.0 | 4.0 | 0.00 | 0.02 | 0.00 | 41 | 1020.6 |
| 20260830163620 | 78 | 219 | 1.0 | 4.0 | 0.00 | 0.02 | 0.00 | 40 | 1020.6 |
| 20260830163350 | 78 | 191 | 1.0 | 4.0 | 0.00 | 0.02 | 0.00 | 40 | 1020.6 |
| 20260830162618 | 77 | 108 | 1.0 | 2.0 | 0.00 | 0.02 | 0.00 | 41 | 1020.6 |
| 20260830162119 | 77 | 100 | 1.0 | 5.0 | 0.00 | 0.02 | 0.00 | 42 | 1020.6 |
| 20260830161624 | 77 | 251 | 1.0 | 5.0 | 0.00 | 0.02 | 0.00 | 42 | 1020.6 |
| 20260830161620 | 77 | 94 | 0.0 | 5.0 | 0.00 | 0.02 | 0.00 | 40 | 1020.6 |
| 20260830160849 | 77 | 115 | 1.0 | 5.0 | 0.00 | 0.02 | 0.00 | 41 | 1020.6 |
| 20260830160119 | 77 | 250 | 0.0 | 3.0 | 0.00 | 0.02 | 0.00 | 40 | 1020.6 |
| 20260830155620 | 76 | 230 | 0.0 | 2.0 | 0.00 | 0.02 | 0.00 | 42 | 1020.6 |
| 20260830155120 | 76 | 100 | 0.0 | 2.0 | 0.00 | 0.02 | 0.00 | 41 | 1020.6 |
| 20260830154619 | 76 | 256 | 1.0 | 4.0 | 0.00 | 0.02 | 0.00 | 42 | 1020.6 |
| 20260830154120 | 75 | 307 | 4.0 | 9.0 | 0.00 | 0.02 | 0.00 | 41 | 1020.6 |
| 20260830153618 | 75 | 315 | 5.0 | 9.0 | 0.00 | 0.02 | 0.00 | 42 | 1020.6 |
| 20260830153353 | 74 | 303 | 5.0 | 8.0 | 0.00 | 0.02 | 0.00 | 44 | 1020.6 |
| 20260830152619 | 74 | 304 | 4.0 | 8.0 | 0.00 | 0.02 | 0.00 | 45 | 1020.6 |
| 20260830152350 | 73 | 303 | 3.0 | 6.0 | 0.00 | 0.02 | 0.00 | 45 | 1020.6 |
| 20260830151618 | 73 | 4 | 3.0 | 7.0 | 0.00 | 0.02 | 0.00 | 46 | 1020.6 |
| 20260830151119 | 72 | 338 | 4.0 | 7.0 | 0.00 | 0.02 | 0.00 | 47 | 1020.6 |
| 20260830150618 | 71 | 1 | 4.0 | 6.0 | 0.00 | 0.02 | 0.00 | 48 | 1020.6 |
| 20260830150118 | 71 | 300 | 4.0 | 6.0 | 0.00 | 0.02 | 0.00 | 49 | 1020.6 |
| 20260830145853 | 70 | 285 | 2.0 | 6.0 | 0.00 | 0.02 | 0.00 | 50 | 1020.6 |
| 20260830145119 | 70 | 293 | 1.0 | 5.0 | 0.00 | 0.02 | 0.00 | 50 | 1020.6 |
| 20260830144618 | 69 | 304 | 0.0 | 0.0 | 0.00 | 0.02 | 0.00 | 49 | 1020.6 |
| 20260830144120 | 69 | 304 | 0.0 | 0.0 | 0.00 | 0.02 | 0.00 | 49 | 1020.6 |
| 20260830143618 | 69 | 304 | 0.0 | 2.0 | 0.00 | 0.02 | 0.00 | 50 | 1020.6 |
| 20260830143119 | 69 | 304 | 0.0 | 3.0 | 0.00 | 0.02 | 0.00 | 50 | 1020.6 |
| 20260830142619 | 68 | 84 | 0.0 | 3.0 | 0.00 | 0.02 | 0.00 | 53 | 1020.6 |
| 20260830142121 | 68 | 274 | 1.0 | 4.0 | 0.00 | 0.02 | 0.00 | 52 | 1020.6 |
| 20260830141620 | 68 | 276 | 2.0 | 4.0 | 0.00 | 0.02 | 0.00 | 52 | 1020.6 |
| 20260830141120 | 68 | 291 | 2.0 | 4.0 | 0.00 | 0.02 | 0.00 | 52 | 1020.6 |
| 20260830140618 | 68 | 280 | 2.0 | 4.0 | 0.00 | 0.02 | 0.00 | 52 | 1020.6 |
| 20260830140121 | 67 | 302 | 2.0 | 5.0 | 0.00 | 0.02 | 0.00 | 54 | 1020.6 |
| 20260830135618 | 67 | 293 | 1.0 | 5.0 | 0.00 | 0.02 | 0.00 | 53 | 1020.6 |
| 20260830135119 | 67 | 278 | 1.0 | 2.0 | 0.00 | 0.02 | 0.00 | 52 | 1020.6 |
| 20260830134618 | 67 | 271 | 0.0 | 2.0 | 0.00 | 0.02 | 0.00 | 53 | 1020.6 |
| 20260830134121 | 66 | 330 | 0.0 | 0.0 | 0.00 | 0.02 | 0.00 | 55 | 1020.6 |
| 20260830133618 | 66 | 329 | 1.0 | 3.0 | 0.00 | 0.02 | 0.00 | 55 | 1020.6 |
| 20260830133120 | 66 | 292 | 2.0 | 3.0 | 0.00 | 0.02 | 0.00 | 58 | 1020.6 |
| 20260830132620 | 64 | 278 | 1.0 | 3.0 | 0.00 | 0.02 | 0.00 | 58 | 1020.6 |
| 20260830132118 | 64 | 280 | 1.0 | 3.0 | 0.00 | 0.02 | 0.00 | 59 | 1020.6 |
| 20260830131849 | 63 | 287 | 2.0 | 5.0 | 0.00 | 0.02 | 0.00 | 60 | 1020.6 |
| 20260830131119 | 63 | 307 | 2.0 | 5.0 | 0.00 | 0.02 | 0.00 | 59 | 1020.6 |
| 20260830130618 | 63 | 306 | 1.0 | 5.0 | 0.00 | 0.02 | 0.00 | 60 | 1020.6 |
| 20260830130120 | 64 | 300 | 2.0 | 5.0 | 0.00 | 0.02 | 0.00 | 58 | 1020.6 |
| 20260830125621 | 64 | 319 | 3.0 | 5.0 | 0.00 | 0.02 | 0.00 | 58 | 1020.6 |
| 20260830125119 | 63 | 309 | 3.0 | 5.0 | 0.00 | 0.02 | 0.00 | 59 | 1020.6 |
| 20260830124852 | 64 | 298 | 3.0 | 6.0 | 0.00 | 0.02 | 0.00 | 57 | 1020.6 |
| 20260830124118 | 64 | 297 | 3.0 | 6.0 | 0.00 | 0.02 | 0.00 | 57 | 1020.6 |
| 20260830123620 | 64 | 262 | 3.0 | 6.0 | 0.00 | 0.02 | 0.00 | 57 | 1020.6 |
| 20260830123116 | 64 | 291 | 2.0 | 4.0 | 0.00 | 0.02 | 0.00 | 57 | 1020.6 |
| 20260830122615 | 64 | 281 | 2.0 | 4.0 | 0.00 | 0.02 | 0.00 | 57 | 1020.6 |
| 20260830122115 | 63 | 283 | 2.0 | 4.0 | 0.00 | 0.02 | 0.00 | 57 | 1020.6 |
| 20260830121617 | 63 | 287 | 2.0 | 4.0 | 0.00 | 0.02 | 0.00 | 58 | 1020.6 |
| 20260830121114 | 64 | 294 | 3.0 | 5.0 | 0.00 | 0.02 | 0.00 | 57 | 1020.6 |
| 20260830120613 | 63 | 281 | 3.0 | 6.0 | 0.00 | 0.02 | 0.00 | 57 | 1020.6 |
| 20260830120112 | 64 | 301 | 2.0 | 6.0 | 0.00 | 0.02 | 0.00 | 56 | 1020.6 |
| 20260830115615 | 65 | 299 | 2.0 | 4.0 | 0.00 | 0.02 | 0.00 | 55 | 1020.6 |
| 20260830115112 | 65 | 290 | 2.0 | 4.0 | 0.00 | 0.02 | 0.00 | 55 | 1020.6 |
| 20260830114612 | 65 | 293 | 2.0 | 4.0 | 0.00 | 0.02 | 0.00 | 54 | 1020.6 |
| 20260830114112 | 65 | 289 | 2.0 | 5.0 | 0.00 | 0.02 | 0.00 | 55 | 1020.6 |
| 20260830113612 | 65 | 293 | 2.0 | 5.0 | 0.00 | 0.02 | 0.00 | 55 | 1020.6 |
| 20260830113112 | 66 | 292 | 1.0 | 4.0 | 0.00 | 0.02 | 0.00 | 53 | 1020.6 |
| 20260830112847 | 66 | 272 | 1.0 | 6.0 | 0.00 | 0.02 | 0.00 | 52 | 1020.6 |
| 20260830112112 | 66 | 272 | 2.0 | 6.0 | 0.00 | 0.02 | 0.00 | 53 | 1020.6 |
| 20260830111612 | 66 | 276 | 1.0 | 5.0 | 0.00 | 0.02 | 0.00 | 53 | 1020.6 |
| 20260830111114 | 66 | 276 | 2.0 | 4.0 | 0.00 | 0.02 | 0.00 | 52 | 1020.6 |
| 20260830110610 | 66 | 273 | 2.0 | 4.0 | 0.00 | 0.02 | 0.00 | 53 | 1020.6 |
| 20260830110110 | 66 | 283 | 2.0 | 4.0 | 0.00 | 0.02 | 0.00 | 53 | 1020.6 |
| 20260830105610 | 65 | 291 | 1.0 | 4.0 | 0.00 | 0.02 | 0.00 | 53 | 1020.6 |
| 20260830105112 | 65 | 282 | 2.0 | 4.0 | 0.00 | 0.02 | 0.00 | 53 | 1020.6 |
| 20260830104611 | 65 | 278 | 3.0 | 4.0 | 0.00 | 0.02 | 0.00 | 54 | 1020.6 |
| 20260830104110 | 65 | 283 | 3.0 | 4.0 | 0.00 | 0.02 | 0.00 | 53 | 1020.6 |
| 20260830103840 | 65 | 302 | 3.0 | 4.0 | 0.00 | 0.02 | 0.00 | 53 | 1020.6 |
| 20260830103729 | 66 | 284 | 2.0 | 4.0 | 0.00 | 0.02 | 0.00 | 52 | 1020.6 |
| 20260830102609 | 66 | 289 | 2.0 | 3.0 | 0.00 | 0.02 | 0.00 | 52 | 1020.6 |
| 20260830102109 | 66 | 288 | 2.0 | 3.0 | 0.00 | 0.02 | 0.00 | 51 | 1020.6 |
| 20260830101610 | 66 | 278 | 2.0 | 3.0 | 0.00 | 0.02 | 0.00 | 52 | 1020.6 |
| 20260830101108 | 66 | 278 | 2.0 | 3.0 | 0.00 | 0.02 | 0.00 | 51 | 1020.6 |
| 20260830100839 | 66 | 266 | 1.0 | 3.0 | 0.00 | 0.02 | 0.00 | 52 | 1020.6 |
| 20260830100112 | 67 | 275 | 1.0 | 2.0 | 0.00 | 0.02 | 0.00 | 50 | 1020.6 |
| 20260830095609 | 66 | 280 | 1.0 | 3.0 | 0.00 | 0.02 | 0.00 | 51 | 1020.6 |
| 20260830095109 | 66 | 282 | 2.0 | 3.0 | 0.00 | 0.02 | 0.00 | 51 | 1020.6 |
| 20260830094609 | 67 | 279 | 2.0 | 5.0 | 0.00 | 0.02 | 0.00 | 49 | 1020.6 |
| 20260830094108 | 67 | 286 | 3.0 | 5.0 | 0.00 | 0.02 | 0.00 | 50 | 1020.6 |
| 20260830093611 | 67 | 294 | 2.0 | 5.0 | 0.00 | 0.02 | 0.00 | 49 | 1020.6 |
| 20260830093338 | 67 | 287 | 3.0 | 5.0 | 0.00 | 0.02 | 0.00 | 50 | 1020.6 |
| 20260830092607 | 66 | 276 | 3.0 | 7.0 | 0.00 | 0.02 | 0.00 | 52 | 1020.6 |
| 20260830092105 | 67 | 294 | 3.0 | 7.0 | 0.00 | 0.02 | 0.00 | 51 | 1020.6 |
| 20260830091840 | 67 | 291 | 3.0 | 6.0 | 0.00 | 0.02 | 0.00 | 50 | 1020.6 |
| 20260830091107 | 67 | 279 | 3.0 | 6.0 | 0.00 | 0.02 | 0.00 | 50 | 1020.6 |
| 20260830090606 | 67 | 284 | 2.0 | 4.0 | 0.00 | 0.02 | 0.00 | 50 | 1020.6 |
| 20260830090106 | 67 | 278 | 1.0 | 3.0 | 0.00 | 0.02 | 0.00 | 50 | 1020.6 |
| 20260830085837 | 67 | 275 | 1.0 | 2.0 | 0.00 | 0.02 | 0.00 | 50 | 1020.6 |
| 20260830085106 | 67 | 274 | 1.0 | 2.0 | 0.00 | 0.02 | 0.00 | 50 | 1020.6 |
| 20260830084605 | 66 | 281 | 2.0 | 4.0 | 0.00 | 0.02 | 0.00 | 51 | 1020.6 |
| 20260830084104 | 66 | 283 | 2.0 | 4.0 | 0.00 | 0.02 | 0.00 | 52 | 1020.6 |
| 20260830083604 | 65 | 274 | 2.0 | 4.0 | 0.00 | 0.02 | 0.00 | 53 | 1020.6 |
| 20260830083337 | 65 | 283 | 3.0 | 6.0 | 0.00 | 0.02 | 0.00 | 53 | 1020.6 |
| 20260830082835 | 66 | 295 | 3.0 | 6.0 | 0.00 | 0.02 | 0.00 | 53 | 1020.6 |
| 20260830082105 | 65 | 281 | 3.0 | 6.0 | 0.00 | 0.02 | 0.00 | 53 | 1020.6 |
| 20260830081605 | 65 | 288 | 3.0 | 5.0 | 0.00 | 0.02 | 0.00 | 53 | 1020.6 |
| 20260830081337 | 66 | 289 | 2.0 | 4.0 | 0.00 | 0.02 | 0.00 | 53 | 1020.6 |
| 20260830080604 | 66 | 283 | 2.0 | 4.0 | 0.00 | 0.02 | 0.00 | 52 | 1020.6 |
| 20260830080107 | 66 | 287 | 1.0 | 3.0 | 0.00 | 0.02 | 0.00 | 52 | 1020.6 |
| 20260830075605 | 66 | 287 | 0.0 | 2.0 | 0.00 | 0.02 | 0.00 | 52 | 1020.6 |
| 20260830075103 | 65 | 287 | 0.0 | 0.0 | 0.00 | 0.02 | 0.00 | 52 | 1020.6 |
| 20260830074602 | 65 | 287 | 1.0 | 3.0 | 0.00 | 0.02 | 0.00 | 54 | 1020.6 |
| 20260830074102 | 66 | 287 | 1.0 | 3.0 | 0.00 | 0.02 | 0.00 | 53 | 1020.6 |
| 20260830073603 | 66 | 283 | 2.0 | 3.0 | 0.00 | 0.02 | 0.00 | 52 | 1020.6 |
| 20260830073102 | 67 | 283 | 2.0 | 4.0 | 0.00 | 0.02 | 0.00 | 51 | 1020.6 |
| 20260830072602 | 67 | 282 | 2.0 | 4.0 | 0.00 | 0.02 | 0.00 | 51 | 1020.6 |
| 20260830072101 | 67 | 283 | 1.0 | 3.0 | 0.00 | 0.02 | 0.00 | 51 | 1020.6 |
| 20260830071604 | 67 | 282 | 2.0 | 3.0 | 0.00 | 0.02 | 0.00 | 51 | 1020.6 |
| 20260830071102 | 66 | 283 | 2.0 | 3.0 | 0.00 | 0.02 | 0.00 | 52 | 1020.6 |
| 20260830070832 | 66 | 288 | 1.0 | 3.0 | 0.00 | 0.02 | 0.00 | 52 | 1020.6 |
| 20260830065600 | 65 | 266 | 0.0 | 0.0 | 0.00 | 0.02 | 0.00 | 54 | 1020.6 |
| 20260830065330 | 65 | 266 | 0.0 | 0.0 | 0.00 | 0.02 | 0.00 | 54 | 1020.6 |
| 20260830064602 | 65 | 266 | 0.0 | 0.0 | 0.00 | 0.02 | 0.00 | 54 | 1020.6 |
| 20260830064334 | 65 | 266 | 0.0 | 0.0 | 0.00 | 0.02 | 0.00 | 55 | 1020.6 |
| 20260830063602 | 64 | 266 | 0.0 | 1.0 | 0.00 | 0.02 | 0.00 | 55 | 1020.6 |
| 20260830063101 | 64 | 266 | 0.0 | 2.0 | 0.00 | 0.02 | 0.00 | 56 | 1020.6 |
| 20260830062833 | 63 | 289 | 0.0 | 2.0 | 0.00 | 0.02 | 0.00 | 58 | 1020.6 |
| 20260830062100 | 63 | 256 | 0.0 | 1.0 | 0.00 | 0.02 | 0.00 | 59 | 1020.6 |
| 20260830061559 | 63 | 256 | 0.0 | 1.0 | 0.00 | 0.02 | 0.00 | 60 | 1020.6 |
| 20260830061059 | 64 | 256 | 0.0 | 2.0 | 0.00 | 0.02 | 0.00 | 62 | 1020.6 |
| 20260830060558 | 64 | 252 | 0.0 | 2.0 | 0.00 | 0.02 | 0.00 | 63 | 1020.6 |
| 20260830060328 | 63 | 213 | 0.0 | 0.0 | 0.00 | 0.02 | 0.00 | 64 | 1020.6 |
| 20260830055559 | 64 | 213 | 0.0 | 0.0 | 0.00 | 0.02 | 0.02 | 66 | 1020.6 |
| 20260830055059 | 64 | 233 | 0.0 | 0.0 | 0.00 | 0.02 | 0.02 | 66 | 1020.6 |
| 20260830054559 | 64 | 233 | 0.0 | 0.0 | 0.00 | 0.02 | 0.02 | 65 | 1020.6 |
| 20260830054328 | 64 | 233 | 0.0 | 2.0 | 0.00 | 0.02 | 0.02 | 65 | 1020.6 |
| 20260830053600 | 64 | 240 | 0.0 | 2.0 | 0.00 | 0.02 | 0.02 | 64 | 1020.6 |
| 20260830053329 | 65 | 217 | 0.0 | 0.0 | 0.00 | 0.02 | 0.02 | 63 | 1020.6 |
| 20260830052559 | 65 | 232 | 0.0 | 1.0 | 0.00 | 0.02 | 0.02 | 62 | 1020.6 |
| 20260830052100 | 66 | 232 | 0.0 | 1.0 | 0.00 | 0.02 | 0.02 | 61 | 1020.6 |
| 20260830051558 | 66 | 94 | 0.0 | 1.0 | 0.00 | 0.02 | 0.02 | 58 | 1020.6 |
| 20260830051058 | 66 | 111 | 0.0 | 1.0 | 0.00 | 0.02 | 0.02 | 53 | 1020.6 |